Change the Weather History Date:

Wednesday, July 17, 2013

  Actual Average Record
Temperature  
Mean Temperature 66 °F -  
Max Temperature 78 °F 64 °F 78 °F (2013)
Min Temperature 53 °F 48 °F 37 °F (1969)
Growing Degree Days 16 (Base 50)    
Moisture  
Dew Point 51 °F    
Average Humidity 63    
Maximum Humidity 88    
Minimum Humidity 36    
Precipitation  
Precipitation 0.00 in - - ()
Sea Level Pressure  
Sea Level Pressure 29.99 in    
Wind  
Wind Speed 3 mph (WNW)    
Max Wind Speed 9 mph    
Max Gust Speed -    
Visibility 10 miles    
Events      
Averages and records for this station are not official NWS values.
T = Trace of Precipitation, MM = Missing Value Source: NWS Daily Summary

Daily Weather History Graph

Daily Weather History Graph

Search for Another Location

Airport or City:

Trip Planner

Search our weather history database for the weather conditions in past years. The results will help you decide how hot, cold, wet, or windy it might be!

Date:

Astronomy

Jul. 17, 2013 Rise Set
Actual Time 4:24 AM AKDT 9:25 PM AKDT
Civil Twilight 3:28 AM AKDT 10:21 PM AKDT
Nautical Twilight 1:32 AM AKDT 12:12 AM AKDT
Astronomical Twilight Sun does not rise Sun does not rise
Moon 4:06 PM AKDT (7/17) 12:01 AM AKDT (7/17)
Length of Visible Light 18h 53m
Length of Day
17h 00m
Waxing Gibbous, 68% of the Moon is Illuminated
Jul 17
Waxing Gibbous
Jul 22
Full
Jul 29
Last Quarter
Aug 6
New
Aug 14
First Quarter

Hourly Weather History & Observations

Time (AKDT) Temp. Dew Point Humidity Pressure Visibility Wind Dir Wind Speed Gust Speed Precip Events Conditions
12:16 AM 60.8 °F 48.2 °F 63% 30.01 in 10.0 mi WSW 5.8 mph - N/A   Clear
12:36 AM 59.0 °F 46.4 °F 63% 30.01 in 10.0 mi Calm Calm - N/A   Clear
12:56 AM 59.0 °F 48.2 °F 67% 30.01 in 10.0 mi Calm Calm - N/A   Clear
1:16 AM 57.2 °F 46.4 °F 67% 30.00 in 10.0 mi Calm Calm - N/A   Clear
1:36 AM 55.4 °F 48.2 °F 77% 30.00 in 10.0 mi Calm Calm - N/A   Clear
1:56 AM 55.4 °F 46.4 °F 72% 30.00 in 10.0 mi Calm Calm - N/A   Clear
2:16 AM 55.4 °F 48.2 °F 77% 30.00 in 10.0 mi SE 3.5 mph - N/A   Clear
2:36 AM 55.4 °F 48.2 °F 77% 30.00 in 10.0 mi Calm Calm - N/A   Clear
2:56 AM 53.6 °F 48.2 °F 82% 30.00 in 10.0 mi Calm Calm - N/A   Clear
3:16 AM 53.6 °F 46.4 °F 77% 29.99 in 10.0 mi Calm Calm - N/A   Clear
3:36 AM 53.6 °F 46.4 °F 77% 29.99 in 10.0 mi Calm Calm - N/A   Clear
3:56 AM 55.4 °F 48.2 °F 77% 29.99 in 10.0 mi Calm Calm - N/A   Clear
4:16 AM 55.4 °F 48.2 °F 77% 29.99 in 10.0 mi SSW 3.5 mph - N/A   Clear
4:36 AM 55.4 °F 48.2 °F 77% 29.99 in 10.0 mi SSW 4.6 mph - N/A   Clear
4:56 AM 55.4 °F 48.2 °F 77% 29.98 in 10.0 mi SW 5.8 mph - N/A   Clear
5:16 AM 55.4 °F 48.2 °F 77% 29.98 in 10.0 mi West 3.5 mph - N/A   Clear
5:36 AM 55.4 °F 48.2 °F 77% 29.98 in 10.0 mi ESE 5.8 mph - N/A   Clear
5:56 AM 55.4 °F 51.8 °F 88% 29.98 in 10.0 mi SE 5.8 mph - N/A   Mostly Cloudy
6:16 AM 55.4 °F 51.8 °F 88% 29.98 in 10.0 mi SE 5.8 mph - N/A   Mostly Cloudy
6:36 AM 55.4 °F 51.8 °F 88% 29.99 in 10.0 mi ESE 3.5 mph - N/A   Mostly Cloudy
6:56 AM 57.2 °F 51.8 °F 82% 29.99 in 10.0 mi Calm Calm - N/A   Mostly Cloudy
7:16 AM 57.2 °F 51.8 °F 82% 29.99 in 10.0 mi Calm Calm - N/A   Mostly Cloudy
7:36 AM 57.2 °F 51.8 °F 82% 29.99 in 10.0 mi Calm Calm - N/A   Mostly Cloudy
7:56 AM 57.2 °F 51.8 °F 82% 29.99 in 10.0 mi WNW 3.5 mph - N/A   Scattered Clouds
8:16 AM 60.8 °F 50.0 °F 68% 29.99 in 10.0 mi West 4.6 mph - N/A   Scattered Clouds
8:36 AM 60.8 °F 51.8 °F 72% 29.99 in 10.0 mi NNW 3.5 mph - N/A   Scattered Clouds
8:56 AM 60.8 °F 50.0 °F 68% 29.99 in 10.0 mi West 4.6 mph - N/A   Scattered Clouds
9:16 AM 62.6 °F 50.0 °F 63% 29.99 in 10.0 mi NW 4.6 mph - N/A   Scattered Clouds
9:36 AM 62.6 °F 51.8 °F 68% 29.98 in 10.0 mi WNW 9.2 mph - N/A   Scattered Clouds
9:56 AM 64.4 °F 51.8 °F 64% 29.98 in 10.0 mi West 5.8 mph - N/A   Scattered Clouds
10:16 AM 64.4 °F 51.8 °F 64% 29.98 in 10.0 mi NW 3.5 mph - N/A   Scattered Clouds
10:36 AM 64.4 °F 51.8 °F 64% 29.98 in 10.0 mi NW 6.9 mph - N/A   Scattered Clouds
10:56 AM 66.2 °F 51.8 °F 60% 29.98 in 10.0 mi NW 5.8 mph - N/A   Scattered Clouds
11:16 AM 66.2 °F 51.8 °F 60% 29.98 in 10.0 mi NW 5.8 mph - N/A   Scattered Clouds
11:36 AM 68.0 °F 53.6 °F 60% 29.98 in 10.0 mi NW 4.6 mph - N/A   Scattered Clouds
11:56 AM 69.8 °F 53.6 °F 56% 29.98 in 10.0 mi WNW 5.8 mph - N/A   Clear
12:16 PM 69.8 °F 51.8 °F 53% 29.98 in 10.0 mi NW 5.8 mph - N/A   Clear
12:36 PM 71.6 °F 51.8 °F 50% 29.98 in 10.0 mi West 3.5 mph - N/A   Clear
12:56 PM 71.6 °F 51.8 °F 50% 29.98 in 10.0 mi WNW 3.5 mph - N/A   Clear
1:16 PM 73.4 °F 53.6 °F 50% 29.98 in 10.0 mi North 4.6 mph - N/A   Clear
1:36 PM 73.4 °F 53.6 °F 50% 29.98 in 10.0 mi WNW 4.6 mph - N/A   Clear
1:56 PM 75.2 °F 51.8 °F 44% 29.97 in 10.0 mi NW 5.8 mph - N/A   Clear
2:16 PM 75.2 °F 51.8 °F 44% 29.97 in 10.0 mi WNW 4.6 mph - N/A   Clear
2:36 PM 77.0 °F 50.0 °F 39% 29.97 in 10.0 mi WNW 3.5 mph - N/A   Clear
2:56 PM 78.8 °F 50.0 °F 36% 29.97 in 10.0 mi West 4.6 mph - N/A   Clear
3:16 PM 78.8 °F 50.0 °F 36% 29.97 in 10.0 mi WNW 3.5 mph - N/A   Clear
3:36 PM 77.0 °F 51.8 °F 41% 29.97 in 10.0 mi NW 6.9 mph - N/A   Clear
3:56 PM 75.2 °F 55.4 °F 50% 29.97 in 10.0 mi NW 5.8 mph - N/A   Clear
4:16 PM 73.4 °F 55.4 °F 53% 29.97 in 10.0 mi NW 5.8 mph - N/A   Clear
4:36 PM 77.0 °F 51.8 °F 41% 29.97 in 10.0 mi NW 4.6 mph - N/A   Clear
4:56 PM 75.2 °F 51.8 °F 44% 29.97 in 10.0 mi NW 5.8 mph - N/A   Clear
5:16 PM 75.2 °F 51.8 °F 44% 29.97 in 10.0 mi NW 6.9 mph - N/A   Clear
5:36 PM 75.2 °F 51.8 °F 44% 29.97 in 10.0 mi NW 5.8 mph - N/A   Clear
5:56 PM 78.8 °F 51.8 °F 39% 29.97 in 10.0 mi West 8.1 mph - N/A   Clear
6:16 PM 77.0 °F 51.8 °F 41% 29.97 in 10.0 mi West 5.8 mph - N/A   Clear
6:36 PM 75.2 °F 53.6 °F 47% 29.97 in 10.0 mi WNW 6.9 mph - N/A   Clear
6:56 PM 75.2 °F 51.8 °F 44% 29.97 in 10.0 mi West 6.9 mph - N/A   Clear
7:16 PM 75.2 °F 53.6 °F 47% 29.98 in 10.0 mi Calm Calm - N/A   Clear
7:36 PM 69.8 °F 55.4 °F 60% 29.98 in 10.0 mi NNW 5.8 mph - N/A   Clear
7:56 PM 68.0 °F 53.6 °F 60% 29.98 in 10.0 mi Calm Calm - N/A   Clear
8:16 PM 71.6 °F 53.6 °F 53% 29.98 in 10.0 mi Calm Calm - N/A   Clear
8:36 PM 68.0 °F 53.6 °F 60% 29.99 in 10.0 mi West 4.6 mph - N/A   Clear
8:56 PM 69.8 °F 53.6 °F 56% 30.00 in 10.0 mi Calm Calm - N/A   Clear
9:16 PM 66.2 °F 53.6 °F 64% 30.01 in 10.0 mi Calm Calm - N/A   Clear
9:36 PM 64.4 °F 55.4 °F 73% 30.02 in 10.0 mi Calm Calm - N/A   Clear
9:56 PM 64.4 °F 53.6 °F 68% 30.03 in 10.0 mi Calm Calm - N/A   Clear
10:16 PM 64.4 °F 53.6 °F 68% 30.03 in 10.0 mi Calm Calm - N/A   Clear
10:36 PM 64.4 °F 53.6 °F 68% 30.04 in 10.0 mi Calm Calm - N/A   Clear
10:56 PM 62.6 °F 53.6 °F 72% 30.04 in 10.0 mi SE 3.5 mph - N/A   Clear
11:16 PM 62.6 °F 53.6 °F 72% 30.05 in 10.0 mi Calm Calm - N/A   Clear
11:36 PM 62.6 °F 53.6 °F 72% 30.05 in 10.0 mi Calm Calm - N/A   Clear
11:56 PM 62.6 °F 53.6 °F 72% 30.06 in 10.0 mi SSE 3.5 mph - N/A   Clear